SCP
2 2 3 4 5 6 5 4 3 3 4 4 3 2 2 2 2 2 2 2 2 2 3 3 3 4 4 4 4 3 3 3 3 3 3 4 4 3 2 2 1 1 1
3 3 3 4 5 6 5 4 3 3 3 3 3 2 2 2 2 2 2 2 2 2 3 3 3 3 4 4 3 3 3 3 3 3 3 4 4 3 3 2 1 1 1
3 2 2 3 4 5 5 4 3 3 3 3 3 3 2 2 2 2 2 2 2 3 3 3 3 3 3 3 3 3 2 2 2 2 2 3 3 3 2 2 1 1 1
2 2 2 3 3 4 4 4 3 3 3 3 3 4 3 3 3 3 3 3 3 4 4 4 3 3 3 3 3 3 3 3 2 2 2 2 2 2 1 1 1 1 1
2 2 2 3 3 3 3 3 4 4 4 4 5 5 5 4 4 4 4 4 5 5 5 5 4 3 3 3 3 3 3 3 3 3 2 2 2 2 1 1 1 1 1
2 2 2 2 2 2 3 4 5 5 5 6 6 6 6 5 5 4 4 5 5 5 5 5 3 3 2 2 2 2 2 3 3 3 3 3 3 2 2 1 1 1 1
4 4 3 3 3 3 3 5 6 7 8 8 9 9 8 7 4 2 2 3 4 4 4 3 2 2 1 1 1 1 1 2 2 3 3 3 4 3 2 1 1 1 1
6 6 5 4 4 4 4 6 8 9 10 10 10 10 10 7 3 0 1 1 2 2 2 2 2 2 1 1 1 1 2 2 2 3 3 3 3 3 2 1 1 1 2
6 6 5 5 5 6 7 8 9 10 9 9 8 8 8 6 3 0 1 1 2 2 2 2 2 2 1 1 1 2 2 2 2 2 2 3 2 2 2 1 1 2 2
5 5 5 5 6 7 7 8 8 7 6 6 5 4 4 3 2 0 1 1 2 2 2 2 2 1 1 1 1 2 2 2 2 2 2 2 2 2 1 1 1 2 2
4 4 5 5 5 5 5 5 5 4 3 4 3 3 2 2 1 1 1 1 2 2 3 2 2 1 0 0 1 1 1 1 1 2 2 2 3 2 2 2 2 2 2
5 5 5 5 5 4 4 4 3 3 3 3 3 3 3 2 1 1 0 0 1 2 2 2 1 1 0 0 0 1 1 1 1 2 2 2 3 3 3 2 2 2 3
7 6 7 6 5 5 4 4 4 4 4 4 3 3 3 2 1 1 0 0 0 1 1 1 1 0 0 0 0 0 0 1 1 2 2 2 2 3 3 3 2 2 3
6 6 6 6 6 5 5 4 4 5 4 4 4 3 2 2 1 1 0 0 0 0 1 1 0 0 0 0 0 0 1 1 1 2 2 2 2 3 3 3 3 2 2
4 4 4 4 4 5 4 3 3 3 3 3 3 3 2 1 1 0 0 1 0 0 1 1 1 1 1 1 1 1 1 1 1 2 2 2 2 2 3 3 3 3 2
3 3 3 3 3 4 4 3 2 1 1 1 1 1 1 1 0 0 0 0 0 0 1 1 1 2 1 1 1 1 1 2 2 2 2 2 2 2 2 3 3 2 2
3 3 4 4 4 4 4 3 2 1 1 0 0 0 0 0 0 0 0 0 0 0 0 1 1 2 2 2 1 1 2 2 2 2 2 2 2 2 2 2 2 2 2
4 3 4 5 5 5 3 3 2 1 1 1 0 0 0 0 0 0 0 0 0 0 0 0 1 1 2 2 2 2 2 2 3 3 3 2 2 2 2 2 2 2 1
5 5 5 5 5 3 2 2 1 2 1 1 1 0 0 0 0 0 0 0 0 0 0 0 0 1 1 1 2 2 2 2 3 3 4 3 3 2 2 2 1 1 1
6 5 5 4 3 2 1 1 1 1 1 1 1 1 1 0 0 0 0 0 0 1 1 1 1 1 1 1 1 1 2 2 3 3 4 4 3 3 2 2 2 2 2
4 4 3 2 2 1 1 1 1 1 1 1 1 1 1 1 1 1 0 0 0 1 1 1 1 1 1 1 1 1 1 2 2 2 3 3 4 3 3 3 3 2 2
3 2 2 1 1 1 1 1 1 1 1 1 1 1 1 1 1 1 0 0 0 0 1 1 1 1 1 1 1 1 1 1 1 2 2 3 3 3 3 3 3 3 2
2 2 1 1 1 1 1 1 1 1 1 1 1 1 1 1 1 1 0 0 0 0 0 1 1 1 1 1 1 1 1 1 1 1 2 2 3 3 3 3 3 2 2
1 1 1 1 1 1 1 1 1 1 1 0 1 1 1 1 1 1 1 1 0 0 0 1 1 1 1 1 1 1 1 1 1 1 1 2 2 2 3 3 2 2 2
1 1 1 1 1 1 1 1 1 1 0 0 1 1 1 1 1 1 1 1 1 1 1 1 1 1 1 1 1 1 0 0 1 1 1 1 2 2 2 2 2 2 2
1 1 1 1 1 1 1 1 1 1 0 1 1 1 1 1 1 1 1 1 1 1 1 1 1 2 1 1 1 0 0 0 0 0 1 1 1 2 2 2 2 2 2
Wind_Speed
7 6 5 5 6 6 5 5 4 4 4 4 3 3 3 3 2 2 2 1 2 1 1 1 2 2 2 2 2 2 2 3 3 2 1 0 1 2 1 2 2 3 4
7 6 6 5 5 6 5 4 4 4 4 4 4 4 3 3 3 3 3 2 3 2 2 2 2 2 2 2 2 2 2 2 3 3 2 1 2 2 2 3 2 3 2
7 7 6 6 6 5 4 4 4 4 4 4 4 4 4 3 3 4 3 3 3 3 3 3 3 2 2 2 3 2 2 2 3 3 3 1 2 2 2 3 3 2 3
7 7 6 5 5 4 4 4 4 4 4 4 4 4 4 4 4 4 4 4 4 4 4 3 3 3 3 3 3 3 3 3 3 3 3 2 2 1 2 2 3 3 3
7 7 6 5 5 4 4 4 4 4 5 4 4 5 5 5 4 4 4 5 4 4 4 4 4 2 2 3 3 3 3 3 3 3 3 3 2 2 3 3 3 3 3
6 6 5 5 5 5 4 4 4 4 4 4 4 5 5 4 2 2 4 4 4 5 4 4 4 4 4 5 4 5 5 4 4 4 4 4 4 4 3 4 3 3 3
6 5 5 5 5 4 4 4 3 4 4 4 5 5 5 3 3 3 4 5 5 4 4 5 5 3 4 4 5 6 6 6 6 7 6 6 5 4 4 5 4 5 4
5 5 4 4 4 4 4 4 4 3 3 4 4 4 4 4 5 5 5 6 5 5 5 5 4 4 3 4 5 5 4 4 5 6 6 6 5 3 4 5 5 5 5
5 4 4 4 4 4 5 4 3 3 3 3 3 3 4 3 4 5 5 5 5 5 5 4 4 4 2 3 5 5 4 4 3 4 4 5 4 4 4 4 4 4 4
4 4 4 4 4 4 4 4 3 3 3 3 2 2 2 2 3 4 5 5 4 4 4 4 3 2 2 2 5 4 5 4 4 4 4 5 6 6 7 6 5 4 4
3 3 4 4 4 4 3 3 3 3 3 3 2 2 2 2 4 5 5 4 4 4 3 2 1 4 2 3 5 4 4 5 5 5 4 4 4 4 4 4 5 5 4
3 3 4 4 4 3 3 3 3 3 4 4 3 3 2 2 1 3 4 4 4 4 3 2 1 3 3 4 4 3 5 6 5 4 4 3 3 3 3 3 4 4 4
3 3 3 3 3 3 3 4 4 4 4 3 3 3 2 1 3 4 4 4 3 4 3 2 0 3 5 5 5 6 6 5 4 4 4 4 4 3 3 3 4 4 5
3 3 3 3 3 3 2 3 3 3 3 3 2 2 1 1 1 1 2 3 4 4 3 2 5 6 6 4 4 5 5 3 4 4 3 3 3 3 3 3 3 3 4
3 3 4 4 3 2 2 1 2 1 1 3 3 2 2 2 1 1 2 2 2 1 3 4 4 3 3 3 3 3 3 3 3 3 3 3 3 3 3 3 3 3 4
3 4 3 3 3 3 2 2 2 0 1 1 1 3 1 1 2 1 1 1 2 3 5 4 4 3 3 3 3 3 3 3 3 3 3 3 3 3 3 3 3 4 4
3 3 3 2 3 3 3 2 2 2 3 3 3 3 3 2 2 2 3 3 4 5 6 4 3 3 4 3 3 3 3 3 3 3 3 3 4 4 4 3 4 4 4
4 3 3 3 3 2 2 2 2 2 2 2 3 5 6 5 4 4 4 4 4 5 4 4 3 3 3 3 3 3 4 3 3 3 3 4 4 4 4 4 4 4 5
3 2 2 2 2 2 2 2 3 3 2 2 1 3 5 5 6 6 6 5 4 4 4 3 4 4 4 3 3 3 4 3 4 4 4 4 4 5 4 5 5 4 6
2 1 2 3 3 3 3 3 3 2 3 3 3 2 2 3 3 3 4 4 4 4 4 4 4 4 4 4 4 4 4 4 4 4 4 4 5 5 5 6 5 5 5
2 2 4 4 3 2 3 3 3 3 2 3 2 1 2 4 3 3 3 4 4 3 3 3 3 4 4 4 4 4 5 4 4 4 4 4 5 5 5 5 5 5 5
2 2 3 3 2 3 3 3 3 3 3 3 2 2 4 4 3 3 3 3 3 3 3 3 4 3 3 4 4 4 5 5 4 4 4 4 4 5 5 5 5 5 5
3 3 3 2 3 2 4 4 3 3 3 3 3 2 2 3 3 3 3 3 2 3 3 3 4 3 3 3 4 4 5 4 4 4 4 5 5 5 5 5 6 6 6
3 3 3 3 3 3 4 4 3 3 3 3 3 2 3 3 3 3 3 3 3 3 3 3 4 4 5 4 4 4 4 4 5 5 6 6 6 5 5 5 6 6 5
3 3 3 3 3 3 3 3 3 3 3 3 3 3 3 3 3 3 3 3 4 4 4 4 4 4 5 6 5 4 2 2 3 5 6 6 6 6 6 6 6 6 5
2 2 3 3 3 3 3 3 3 3 3 3 3 3 3 3 3 3 3 3 3 3 4 3 4 5 5 5 4 2 0 1 2 5 6 6 6 5 6 5 6 6 5
Wind_Direction
186 188 184 186 188 191 195 198 201 206 202 205 206 206 205 206 208 218 237 228 243 261 274 258 266 292 281 275 271 272 272 273 268 280 283 169 212 265 221 248 227 211 180
177 181 184 186 189 192 188 191 192 196 201 199 200 200 208 208 217 224 233 228 231 235 243 254 254 249 259 276 277 273 282 283 268 275 279 242 224 227 224 241 237 225 223
173 177 179 184 186 190 187 187 191 194 200 203 203 208 215 218 224 228 231 235 237 239 243 245 249 253 260 274 268 266 260 255 265 266 264 254 244 236 240 237 235 244 243
176 176 180 187 186 185 186 187 192 194 196 202 207 212 217 219 223 228 230 233 237 238 240 244 246 246 253 264 261 266 270 266 252 258 264 251 238 231 244 246 240 222 248
180 182 181 182 180 179 185 191 201 208 205 206 213 214 221 223 222 228 234 231 233 237 239 243 244 251 290 285 284 276 267 264 260 259 261 261 254 252 250 258 257 246 233
185 187 180 181 180 182 188 195 202 210 216 215 218 222 229 232 161 208 251 245 238 238 241 246 241 222 235 246 264 273 278 269 279 280 270 272 264 256 258 260 266 257 246
182 183 181 184 187 192 197 196 209 220 220 222 224 224 227 214 177 204 239 253 245 243 244 245 253 241 235 252 237 224 234 241 253 270 279 284 280 268 258 255 256 266 270
181 182 184 186 192 191 195 203 214 222 224 230 233 233 235 210 181 208 233 241 247 242 240 240 247 255 260 274 268 260 254 244 243 252 268 277 283 286 261 258 257 253 255
179 183 186 193 198 200 201 206 212 219 220 226 225 232 236 216 184 207 235 240 236 239 236 237 245 253 259 271 265 265 265 262 236 239 259 269 285 279 273 265 253 250 256
182 185 193 201 206 205 203 207 207 213 216 225 220 226 226 216 167 192 228 245 243 247 236 226 202 240 242 244 254 257 262 270 269 250 239 241 248 243 231 246 257 256 260
175 183 193 202 206 206 207 209 209 210 213 224 221 221 217 209 170 184 220 253 261 259 259 251 146 141 201 248 265 268 277 278 266 262 259 255 252 248 240 237 247 255 260
176 192 202 208 220 200 201 206 205 209 208 209 212 227 217 192 163 167 201 236 290 277 275 279 106 144 212 242 253 270 272 266 263 267 268 264 261 260 259 255 250 253 264
178 192 203 207 215 213 215 213 210 212 230 226 220 224 219 187 141 152 177 199 237 264 286 14 104 208 228 224 218 238 247 252 263 266 269 274 277 277 268 251 242 237 241
184 188 194 198 203 197 231 234 236 235 238 242 238 232 215 193 189 158 183 192 204 229 255 210 201 216 235 246 226 225 242 264 273 275 278 281 281 271 261 263 259 248 247
191 195 201 198 187 193 208 269 262 298 314 274 269 255 249 236 97 55 271 257 266 279 271 250 242 232 235 242 247 253 256 250 254 269 274 276 277 277 276 275 272 265 257
208 211 209 198 186 199 192 180 92 123 120 191 269 282 297 82 108 151 241 264 261 249 254 245 247 248 250 254 256 253 252 259 267 270 272 276 277 276 271 266 262 261 264
224 223 223 212 200 209 210 213 205 167 165 180 191 200 213 203 199 218 224 234 239 231 242 247 249 251 254 254 256 262 267 270 276 274 277 276 276 275 270 268 269 265 263
219 209 228 224 224 221 223 226 226 225 209 192 178 181 191 198 206 218 216 218 228 226 242 249 252 250 250 252 255 258 264 265 264 270 270 270 271 273 274 267 263 270 270
222 219 223 234 225 222 224 229 231 222 223 224 207 167 180 190 203 218 215 236 246 238 239 244 249 250 249 250 254 259 262 264 265 266 263 263 265 266 267 269 267 253 260
222 185 231 235 223 212 215 221 225 222 224 227 230 222 184 207 219 209 216 239 251 254 254 252 249 251 252 253 250 252 253 251 251 256 261 260 258 259 260 264 271 270 264
228 186 203 230 227 220 223 226 224 226 231 245 247 206 223 247 249 246 241 236 248 256 257 258 252 248 246 248 250 249 251 254 258 262 262 261 263 264 263 261 261 264 269
232 218 217 227 224 224 234 236 233 225 228 245 250 202 208 244 258 256 251 248 248 248 254 255 254 249 255 255 251 252 251 254 258 263 266 266 262 259 260 264 267 268 267
237 226 230 236 237 224 236 239 234 230 233 238 242 241 228 245 251 252 259 265 260 258 254 252 260 263 258 260 262 260 261 262 265 270 268 263 261 258 257 259 261 265 266
237 234 234 240 240 239 241 244 241 232 231 235 236 236 241 250 260 259 262 265 259 255 255 250 251 259 264 265 264 263 269 284 276 260 259 263 264 265 263 259 259 260 263
238 237 238 241 245 244 247 246 246 244 240 238 237 238 240 242 248 255 261 259 256 256 258 255 252 251 253 257 265 277 355 355 306 290 258 256 259 261 263 265 267 270 266
244 242 246 242 241 242 243 245 246 248 246 244 243 240 244 248 253 259 261 259 261 260 260 254 255 258 256 252 254 261 177 235 266 282 272 259 260 260 263 261 261 261 260